INTELSAT 10-02 (28358 NORAD) Tracking and Keplerian Element Data

This shows tracking and keplerian element data for the satellite.

Feedback or suggestion? Click here.




ElementValue
Catalog28358
NameINTELSAT 10-02
Epoch Orbit7320
Epoch Day159.27908213
Epoch Year2024
RAAN359.5679
Inclination0.0179
Eccentricity7.02E-05
Argument of Perigee57.6602
Mean Anonmoly298.4001
Mean Motion1.00272999
Decay Rate-1E-07
L11 28358U 04022A 24159.27908213 -.00000010 00000+0 00000+0 0 9997
L22 28358 0.0179 359.5679 0000702 57.6602 298.4001 1.00272999 73209



Live tracking and technical data element details for INTELSAT 10-02 (NORAD 28358). INTELSAT 10-02 can be tracked NOW for your location showing map with azimuth and elevation plus other details from your city location.







IsCatalogInMostPopularTable: catalog: 28358, numindb: 694
Update: records affected: 1



GetName: 28358 INTELSAT 10-02

Hit Count: updated at: Fri, 14 Jun 2024 19:34:12 GMT